Вернуться в каталог

STARLINK-34766

АктивенСвязьVLEO
NORAD 66505·PAYLOAD·🇺🇸 United States

Запущен Nov 15, 2025 с Cape Canaveral Space Force Station

Loading…

Ближайшие Пролёты (ближайшие 24 часа)

TLE

СвежийSource: CelesTrak SupGP

Эпоха: Sep 14, 2026, 21:13 UTC

1 66505C 25263W   26257.88451389  .00012343  00000+0  44701-3 0  2576
2 66505  43.0027   1.8387 0001642 275.4424 250.2882 15.27577077    14

Отслеживайте STARLINK-34766 в реальном времени с AllMySat

Download on the App Store